Regional Weather Roundup
Issued by NWS Goodland, KS

Home | Current Version | Previous Version | Text Only | Print | Product List | Glossary On
Versions: 1 2 3 4 5 6 7 8 9 10 11 12 13 14 15 16 17 18 19 20 21 22 23 24 25 26 27 28 29 30 31 32 33 34 35 36 37 38 39 40 41 42 43 44 45 46 47 48 49 50
000
ASUS43 KGLD 031008
RWRGLD

GOODLAND FORECAST AREA HOURLY WEATHER ROUNDUP
NATIONAL WEATHER SERVICE GOODLAND KS
400 AM MDT TUE AUG 03 2021

...OFFICIAL OBSERVATIONS...

CITY           SKY/WX    TMP DP  RH WIND       PRES   REMARKS
GOODLAND KS    CLEAR     64  53  67 SW14      30.12F
HILL CITY KS   CLEAR     59  51  75 E3        30.12F
IMPERIAL NEB   CLEAR     61  52  72 SW7       30.09F
MCCOOK NEB     CLEAR     60  51  72 E7        30.10S
AKRON CO       CLEAR     63  49  60 S8        30.15F
BURLINGTON CO  CLEAR     65  50  58 S13       30.16F
LIMON CO       PTCLDY    56  48  74 CALM      30.21S
$$

...UNOFFICIAL OBSERVATIONS...

CITY           SKY/WX    TMP DP  RH WIND       PRES   REMARKS
COLBY KS       CLEAR     63  52  67 S8        30.12F
NORTON KS      MOCLDY    61  50  67 S7        30.15S
SHARON SPRINGS   N/A     62  48  61 SW10        N/A
YUMA CO        FAIR      55  50  82 S8        30.13S
$$



USA.gov is the U.S. government's official web portal to all federal, state and local government web resources and services.